This is the latest recevied weather packets stored in our database for station/object KC1TWD. If no packets are shown the sender has not sent any weather packets the latest 10 day(s).
| Time | Temp. | Humidity | Pressure | Rain* | Wind** | Luminosity | Snow |
|---|---|---|---|---|---|---|---|
| 1777911380 | 21.11° C | 32% | 1006.8 hPa | 0 mm | - | - | - |
| 1777911078 | 20.56° C | 33% | 1006.7 hPa | 0 mm | - | - | - |
| 1777910776 | 20.56° C | 34% | 1006.6 hPa | 0 mm | - | - | - |
| 1777910472 | 20.56° C | 33% | 1006.6 hPa | 0 mm | - | - | - |
| 1777910168 | 20.56° C | 33% | 1006.7 hPa | 0 mm | - | - | - |
| 1777909866 | 20° C | 34% | 1006.9 hPa | 0 mm | - | - | - |
| 1777909562 | 20° C | 36% | 1006.9 hPa | 0 mm | - | - | - |
| 1777909260 | 19.44° C | 35% | 1007 hPa | 0 mm | - | - | - |
| 1777908958 | 19.44° C | 37% | 1007.3 hPa | 0 mm | - | - | - |
| 1777908656 | 19.44° C | 35% | 1007.5 hPa | 0 mm | - | - | - |
| 1777908352 | 18.89° C | 35% | 1007.4 hPa | 0 mm | - | - | - |
| 1777908049 | 19.44° C | 35% | 1007.2 hPa | 0 mm | - | - | - |
| 1777907744 | 19.44° C | 36% | 1007.4 hPa | 0 mm | - | - | - |
| 1777907445 | 18.89° C | 36% | 1007.3 hPa | 0 mm | - | - | - |
| 1777907142 | 18.33° C | 40% | 1007.3 hPa | 0 mm | - | - | - |
| 1777906840 | 18.33° C | 37% | 1007.5 hPa | 0 mm | - | - | - |
| 1777906537 | 16.67° C | 40% | 1007.6 hPa | 0 mm | - | - | - |
| 1777906232 | 16.11° C | 42% | 1007.7 hPa | 0 mm | - | - | - |
| 1777905929 | 16.11° C | 42% | 1007.5 hPa | 0 mm | - | - | - |
| 1777905626 | 15.56° C | 43% | 1007.7 hPa | 0 mm | - | - | - |
| 1777905323 | 16.11° C | 42% | 1007.5 hPa | 0 mm | - | - | - |
| 1777905021 | 16.67° C | 43% | 1007.7 hPa | 0 mm | - | - | - |
| 1777904718 | 16.67° C | 41% | 1007.7 hPa | 0 mm | - | - | - |
| 1777904414 | 16.11° C | 45% | 1007.8 hPa | 0 mm | - | - | - |
| 1777904111 | 16.11° C | 42% | 1007.8 hPa | 0 mm | - | - | - |
* Rain latest hour (hover to see other rain measurements)
** Current wind speed in m/s (hover to see current wind gust speed)